Regional Weather Roundup
Issued by NWS

Home | Current Version | Previous Version | Text Only | Print | Product List | Glossary Off
Versions: 1 2 3 4 5 6 7 8 9 10 11 12 13 14 15 16 17 18 19 20 21 22 23 24 25 26 27 28 29 30 31 32 33 34 35 36 37 38 39 40 41 42 43 44 45 46 47 48 49 50

393
ASUS45 KABQ 252010
RWRNM
NEW MEXICO REGIONAL WEATHER ROUNDUP
NATIONAL WEATHER SERVICE ALBUQUERQUE NM
200 PM MDT WED APR 25 2018

NOTE: "FAIR" MEANS FEW OR NO CLOUDS BELOW 12,000 FEET AGL WITH NO
       SIGNIFICANT WEATHER OR OBSTRUCTIONS TO VISION.

      THIS PRODUCT IS RELEASED AS TWO VERSIONS.  ONE VERSION NEAR
      THE TOP OF THE HOUR CONTAINING PRELIMINARY DATA FROM ALBUQUERQUE
      AND OTHER STATIONS.  A FINAL VERSION WITH ADDITIONAL DATA IS
      ISSUED ABOUT 10 MINUTES AFTER THE HOUR.

NMZ501-503-504-510>518-252100-
NORTHWEST PLATEAU/NORTHCENTRAL MOUNTAINS

CITY           SKY/WX    TMP DP  RH WIND       PRES   REMARKS
FARMINGTON     FAIR      69  11  10 W9        30.17F
LOS ALAMOS     FAIR      58  26  29 S7        30.28F
SANTA FE       FAIR      61  30  31 VRB7      30.25F
TAOS           FAIR      64  -6   6 VRB6G16   30.25F
ANGEL FIRE     FAIR      58  13  16 S6G18     30.27F

$$
NMZ402-403-502-505>509-252100-
WESTCENTRAL MOUNTAINS/SOUTHWEST MOUNTAINS

CITY           SKY/WX    TMP DP  RH WIND       PRES   REMARKS
GALLUP         FAIR      75  16  10 S9G17     30.19F
GRANTS         FAIR      67  28  23 SE12G20   30.24F
SILVER CITY    FAIR      73  30  20 SE12      30.21F

$$
NMZ407-409-411-412-252100-
SOUTHERN DESERTS

CITY           SKY/WX    TMP DP  RH WIND       PRES   REMARKS
DEMING         FAIR      75  36  24 E8        30.17F
LAS CRUCES     FAIR      73  36  25 SE8G16    30.20F
HOLLOMAN AFB   FAIR      75  37  25 E3        30.20F
ALAMOGORDO     FAIR      68  36  30 E3        30.19F
T OR C         FAIR      70  31  23 VRB5      30.18F

$$
NMZ519>523-252100-
CENTRAL VALLEYS/CENTRAL HIGHLANDS

CITY           SKY/WX    TMP DP  RH WIND       PRES   REMARKS
ALBUQUERQUE    FAIR      67  33  28 VRB3      30.22F
DOUBLE EAGLE   MOSUNNY   63  32  31 SE7       30.25F
MORIARTY ARPT  FAIR      60  33  36 SE8       30.28F
CLINES CORNERS FAIR      57  33  40 VRB3      30.30F
BELEN          FAIR      65  32  28 SE6       30.23F
SOCORRO        FAIR      68  32  26 W3        30.21F

$$
NMZ524>526-539-540-252100-
SOUTHCENTRAL MOUNTAINS

CITY           SKY/WX    TMP DP  RH WIND       PRES   REMARKS
RUIDOSO        FAIR      55  36  47 NE6       30.30F

$$
NMZ527>531-252100-
NORTHEAST HIGHLANDS/NORTHEAST PLAINS

CITY           SKY/WX    TMP DP  RH WIND       PRES   REMARKS
LAS VEGAS      FAIR      57  30  35 VRB6      30.28F
RATON          FAIR      62  16  16 S9        30.22F
CLAYTON        FAIR      59  25  27 NW9G18    30.22F

$$
NMZ532>537-252100-
EASTCENTRAL PLAINS

CITY           SKY/WX    TMP DP  RH WIND       PRES   REMARKS
SANTA ROSA     FAIR      58  30  33 S5        30.25F
TUCUMCARI      FAIR      63  31  30 N12       30.23F
CANNON AFB     FAIR      59  32  36 NW9       30.26F
CLOVIS AIRPORT FAIR      59  31  34 NE12      30.26F

$$
NMZ028-029-538-252100-
SOUTHEAST PLAINS

CITY           SKY/WX    TMP DP  RH WIND       PRES   REMARKS
ROSWELL        FAIR      60  36  40 VRB7      30.26F
ARTESIA        FAIR      55  39  54 CALM      30.28F
CARLSBAD       PTSUNNY   54  39  57 NW10      30.27F
HOBBS          PTSUNNY   59  36  41 NE9G17    30.25F


$$




USA.gov is the U.S. government's official web portal to all federal, state and local government web resources and services.